Weather History for LGEL - April, 2014

Change the Weather History Date:

Thursday, April 3, 2014

  Actual Average Record
Temperature  
Mean Temperature 60 °F -  
Max Temperature 73 °F 67 °F 73 °F (2014)
Min Temperature 48 °F 50 °F 39 °F (1997)
Degree Days  
Heating Degree Days 4    
Growing Degree Days 10 (Base 50)    
Moisture  
Dew Point 45 °F    
Average Humidity 59    
Maximum Humidity 88    
Minimum Humidity 27    
Precipitation  
Precipitation 0.00 in - - ()
Sea Level Pressure  
Sea Level Pressure 29.97 in    
Wind  
Wind Speed 3 mph ()    
Max Wind Speed 10 mph    
Max Gust Speed -    
Visibility 6.2 miles    
Events      
Averages and records for this station are not official NWS values.
T = Trace of Precipitation, MM = Missing Value Source: Averaged Metar Reports

Daily Weather History Graph

Daily Weather History Graph

Search for Another Location

Airport or City:

Trip Planner

Search our weather history database for the weather conditions in past years. The results will help you decide how hot, cold, wet, or windy it might be!

Date:

Astronomy

Apr. 03, 2014 Rise Set
Actual Time 7:08 AM EEST 7:50 PM EEST
Civil Twilight 6:41 AM EEST 8:17 PM EEST
Nautical Twilight 6:10 AM EEST 8:48 PM EEST
Astronomical Twilight 5:38 AM EEST 9:20 PM EEST
Moon 9:25 AM EEST (4/3) 11:49 PM EEST (4/3)
Length of Visible Light 13h 35m
Length of Day
12h 42m
Waxing Crescent, 15% of the Moon is Illuminated
Apr 3
Waxing Crescent
Apr 7
First Quarter
Apr 15
Full
Apr 22
Last Quarter
Apr 29
New

Hourly Weather History & Observations

Time (EEST) Temp. Dew Point Humidity Pressure Visibility Wind Dir Wind Speed Gust Speed Precip Events Conditions
12:50 AM 53.6 °F 46.4 °F 77% 29.92 in - Calm Calm - N/A   Clear
1:50 AM 50.0 °F 44.6 °F 82% 29.92 in - Calm Calm - N/A   Clear
3:50 AM 51.8 °F 46.4 °F 82% 29.92 in - NW 5.8 mph - N/A   Clear
4:50 AM 51.8 °F 44.6 °F 76% 29.92 in - NW 5.8 mph - N/A   Clear
5:50 AM 48.2 °F 41.0 °F 76% 29.92 in - Calm Calm - N/A   Clear
6:20 AM 48.2 °F 41.0 °F 76% 29.92 in - Calm Calm - N/A   Clear
6:50 AM 50.0 °F 39.2 °F 66% 29.95 in - Calm Calm - N/A   Clear
7:20 AM 50.0 °F 37.4 °F 62% 29.95 in - Calm Calm - N/A   Clear
7:50 AM 48.2 °F 39.2 °F 71% 29.95 in - Calm Calm - N/A   Clear
8:20 AM 53.6 °F 44.6 °F 72% 29.95 in - Calm Calm - N/A   Clear
8:50 AM 59.0 °F 42.8 °F 55% 29.95 in - Calm Calm - N/A   Clear
9:20 AM 62.6 °F 42.8 °F 48% 29.98 in - Calm Calm - N/A   Clear
9:50 AM 64.4 °F 39.2 °F 40% 29.98 in - Calm Calm - N/A   Clear
10:20 AM 66.2 °F 42.8 °F 43% 29.98 in - South 4.6 mph - N/A   Clear
10:50 AM 66.2 °F 42.8 °F 43% 29.98 in - SSW 4.6 mph - N/A   Clear
11:20 AM 68.0 °F 42.8 °F 40% 29.98 in - SSE 3.5 mph - N/A   Clear
11:50 AM 69.8 °F 41.0 °F 35% 29.98 in - South 4.6 mph - N/A   Clear
12:20 PM 69.8 °F 42.8 °F 38% 29.98 in - South 4.6 mph - N/A   Clear
12:50 PM 69.8 °F 44.6 °F 40% 29.98 in 6.2 mi South 5.8 mph - N/A   Partly Cloudy
1:20 PM 69.8 °F 46.4 °F 43% 29.98 in 6.2 mi SSW 8.1 mph - N/A   Partly Cloudy
1:50 PM 71.6 °F 44.6 °F 38% 29.98 in 6.2 mi SSW 8.1 mph - N/A   Partly Cloudy
2:20 PM 73.4 °F 42.8 °F 33% 29.98 in 6.2 mi South 9.2 mph - N/A   Partly Cloudy
2:50 PM 73.4 °F 39.2 °F 29% 29.95 in 6.2 mi SSW 8.1 mph - N/A   Partly Cloudy
3:20 PM 73.4 °F 42.8 °F 33% 29.95 in 6.2 mi South 8.1 mph - N/A   Partly Cloudy
3:50 PM 73.4 °F 37.4 °F 27% 29.95 in 6.2 mi South 6.9 mph - N/A   Partly Cloudy
4:20 PM 73.4 °F 46.4 °F 38% 29.95 in 6.2 mi SSW 10.4 mph - N/A   Partly Cloudy
4:50 PM 71.6 °F 44.6 °F 38% 29.95 in 6.2 mi South 10.4 mph - N/A   Partly Cloudy
5:20 PM 69.8 °F 48.2 °F 46% 29.95 in 6.2 mi South 9.2 mph - N/A   Partly Cloudy
5:50 PM 68.0 °F 48.2 °F 49% 29.95 in 6.2 mi SSW 8.1 mph - N/A   Partly Cloudy
6:20 PM 66.2 °F 50.0 °F 56% 29.95 in 6.2 mi SSW 8.1 mph - N/A   Partly Cloudy
6:50 PM 64.4 °F 53.6 °F 68% 29.95 in 6.2 mi South 9.2 mph - N/A   Partly Cloudy
7:20 PM 62.6 °F 51.8 °F 68% 29.98 in 6.2 mi South 6.9 mph - N/A   Partly Cloudy
7:50 PM 60.8 °F 51.8 °F 72% 29.98 in 6.2 mi South 5.8 mph - N/A   Partly Cloudy
8:20 PM 60.8 °F 53.6 °F 77% 29.98 in 6.2 mi SSW 6.9 mph - N/A   Partly Cloudy
8:50 PM 59.0 °F 53.6 °F 82% 29.98 in 6.2 mi Calm Calm - N/A   Partly Cloudy
9:20 PM 57.2 °F 51.8 °F 82% 30.01 in 6.2 mi Calm Calm - N/A   Partly Cloudy
9:50 PM 57.2 °F 51.8 °F 82% 30.01 in 6.2 mi Calm Calm - N/A   Partly Cloudy
10:20 PM 55.4 °F 50.0 °F 82% 30.01 in 6.2 mi Calm Calm - N/A   Partly Cloudy
10:50 PM 53.6 °F 50.0 °F 88% 30.01 in 6.2 mi Calm Calm - N/A   Partly Cloudy
11:20 PM 53.6 °F 48.2 °F 82% 30.01 in 6.2 mi Calm Calm - N/A   Partly Cloudy
11:50 PM 53.6 °F 50.0 °F 88% 30.01 in 6.2 mi Calm Calm - N/A   Partly Cloudy